Home   Weather   Medina   Past weeks
Flag for Saudi Arabia

Past Weather in Medina, Saudi Arabia — Yesterday and Last 2 Weeks

Now
95 °F

Clear.


Feels Like: 90 °F
Forecast: 97 / 76 °F
Wind: 9 mph from East

Location: Madinah

Current Time: Oct 16, 2019 at 8:29:01 pm

Latest Report: Oct 16, 2019 at 8:00 pm


Visibility: 10 mi

Pressure: 30.01 "Hg (28.06 "Hg at 606m altitude)

Humidity: 12%

Dew Point: 36 °F

Location of MedinaLocation

Past Weather in Medina — Graph

°F

Medina Temperature Yesterday

Maximum temperature yesterday: 102 °F (at 3:00 pm)
Minimum temperature yesterday: 81 °F (at 7:00 am)
Average temperature yesterday: 92 °F

High & Low Weather Summary for the Past Weeks

 TemperatureHumidityPressure
High106 °F (Oct 6, 4:00 pm)49% (Oct 6, 7:00 am)30.12 "Hg (Oct 6, 7:00 am)
Low79 °F (Oct 13, 7:00 am)9% (Oct 6, 4:00 pm)29.83 "Hg (Oct 6, 3:00 pm)
Average93 °F20%29.98 "Hg
* Reported Oct 1 7:00 pm — Oct 16 7:00 pm, Medina. Weather by CustomWeather, © 2019

Note: Actual official high and low records may vary slightly from our data, if they occured in-between our weather recording intervals... More about our weather records

Advertising

Medina Weather History for the Previous 24 Hours

Scroll right to see more
 ConditionsComfort  
Time TempWeatherWind HumidityBarometerVisibility
7:00 pm
Wed, Oct 16
95 °FClear.7 mph12%29.98 "Hg10 mi
6:00 pm97 °FPassing clouds.9 mph11%29.98 "HgN/A
5:00 pm97 °FScattered clouds.9 mph12%29.98 "HgN/A
4:00 pm99 °FPassing clouds.5 mph11%29.98 "HgN/A
3:00 pm99 °FPassing clouds.7 mph10%30.01 "HgN/A
2:00 pm99 °FSunny.16 mph10%30.01 "Hg10 mi
1:00 pm99 °FSunny.5 mph10%30.04 "Hg10 mi
12:00 pm95 °FSunny.7 mph11%30.07 "Hg10 mi
11:00 am93 °FSunny.No wind12%30.09 "Hg10 mi
10:00 am91 °FSunny.7 mph12%30.09 "Hg10 mi
9:00 am90 °FSunny.5 mph13%30.09 "Hg10 mi
8:00 am84 °FSunny.5 mph15%30.07 "Hg10 mi
7:00 am82 °FSunny.5 mph16%30.07 "Hg10 mi
6:00 am82 °FClear.No wind23%30.04 "Hg10 mi
5:00 am82 °FClear.5 mph16%30.04 "Hg10 mi
4:00 am86 °FPassing clouds.6 mph18%30.01 "HgN/A
3:00 am86 °FPassing clouds.6 mph18%30.01 "HgN/A
2:00 am86 °FClear.6 mph18%30.01 "Hg10 mi
1:00 am90 °FPassing clouds.No wind13%30.01 "HgN/A
12:00 am90 °FPassing clouds.No wind14%30.01 "HgN/A
11:00 pm
Tue, Oct 15
91 °FPassing clouds.9 mph12%30.01 "HgN/A
10:00 pm95 °FPassing clouds.12 mph11%30.01 "HgN/A
9:00 pm95 °FPassing clouds.14 mph11%30.01 "HgN/A
8:00 pm97 °FPassing clouds.14 mph11%29.98 "HgN/A
Weather by CustomWeather, © 2019

See weather overview